User: anonymous   Login
Location: Владивосток
(43.1151°N, 131.8856°E)
Time: 04:48:23
(UTC+10:00)
Language:

AO-91 - Orbit

View from above orbital plane
View from above orbital plane
View from above satellite
View from above satellite

Ground track
Ground track

The orbit data is extracted from the following two-line orbital elements,

1 43017U 17073E   24113.15140397  .00019235  00000-0  12054-2 0  9998
2 43017  97.5876 350.6518 0216427 120.7026 241.5714 14.91950191347308
Epoch (UTC): 22 April 2024 03:38:01
Eccentricity: 0.0216427
inclination: 97.5876°
perigee height: 441 km
apogee height: 743 km
right ascension of ascending node: 350.6518°
argument of perigee: 120.7026°
revolutions per day: 14.91950191
mean anomaly at epoch: 241.5714°
orbit number at epoch: 34730

The dashed part of the orbit path shows where the satellite is in the earth's shadow,  

DLR